Oxnard, CA

4:33 AM PDT on May 30, 2017 (GMT -0700)
Oxnard

Weather History for KOXR - December, 2013

Change the Weather History Date:

Thursday, December 12, 2013

  Actual Average Record
Temperature  
Mean Temperature 52 °F -  
Max Temperature 63 °F 66 °F 82 °F (2010)
Min Temperature 42 °F 45 °F 32 °F (1972)
Degree Days  
Heating Degree Days 12    
Growing Degree Days 2 (Base 50)    
Moisture  
Dew Point 36 °F    
Average Humidity 57    
Maximum Humidity 93    
Minimum Humidity 23    
Precipitation  
Precipitation 0.00 in - - ()
Sea Level Pressure  
Sea Level Pressure 30.17 in    
Wind  
Wind Speed 4 mph (NNE)    
Max Wind Speed 8 mph    
Max Gust Speed -    
Visibility 10 miles    
Events      
Averages and records for this station are not official NWS values.
T = Trace of Precipitation, MM = Missing Value Source: NWS Daily Summary

Daily Weather History Graph

Daily Weather History Graph

Search for Another Location

Airport or City:

Trip Planner

Search our weather history database for the weather conditions in past years. The results will help you decide how hot, cold, wet, or windy it might be!

Date:

Astronomy

Dec. 12, 2013 Rise Set
Actual Time 6:53 AM PST 4:47 PM PST
Civil Twilight 6:25 AM PST 5:15 PM PST
Nautical Twilight 5:54 AM PST 5:47 PM PST
Astronomical Twilight 5:23 AM PST 6:17 PM PST
Moon 1:50 PM PST (12/12) 2:30 AM PST (12/12)
Length of Visible Light 10h 49m
Length of Day
9h 54m
Waxing Gibbous, 81% of the Moon is Illuminated
Dec 12
Waxing Gibbous
Dec 17
Full
Dec 25
Last Quarter
Jan 1
New
Jan 7
First Quarter

Hourly Weather History & Observations

Time (PST) Temp. Windchill Dew Point Humidity Pressure Visibility Wind Dir Wind Speed Gust Speed Precip Events Conditions
12:51 AM 48.9 °F - 21.0 °F 33% 30.15 in 10.0 mi ENE 6.9 mph - N/A   Clear
1:51 AM 50.0 °F - 19.9 °F 31% 30.14 in 10.0 mi Calm Calm - N/A   Clear
2:51 AM 46.0 °F 43.9 °F 21.9 °F 39% 30.14 in 10.0 mi ENE 4.6 mph - N/A   Clear
3:51 AM 48.9 °F - 19.9 °F 32% 30.14 in 9.0 mi East 3.5 mph - N/A   Clear
4:51 AM 42.1 °F - 27.0 °F 55% 30.15 in 10.0 mi Calm Calm - N/A   Clear
5:51 AM 42.1 °F - 26.1 °F 53% 30.17 in 10.0 mi Calm Calm - N/A   Clear
6:51 AM 42.1 °F 40.2 °F 24.1 °F 49% 30.18 in 10.0 mi NNE 3.5 mph - N/A   Clear
7:51 AM 51.1 °F - 21.9 °F 32% 30.19 in 10.0 mi NNE 5.8 mph - N/A   Clear
8:51 AM 59.0 °F - 21.0 °F 23% 30.20 in 10.0 mi NNE 3.5 mph - N/A   Clear
9:51 AM 60.1 °F - 41.0 °F 49% 30.22 in 10.0 mi SW 3.5 mph - N/A   Clear
10:51 AM 60.1 °F - 48.9 °F 67% 30.22 in 10.0 mi WSW 8.1 mph - N/A   Clear
11:51 AM 61.0 °F - 46.9 °F 60% 30.18 in 10.0 mi West 5.8 mph - N/A   Clear
12:51 PM 63.0 °F - 37.9 °F 40% 30.17 in 10.0 mi SW 8.1 mph - N/A   Clear
1:51 PM 63.0 °F - 37.9 °F 40% 30.14 in 10.0 mi WSW 5.8 mph - N/A   Clear
2:51 PM 62.1 °F - 37.9 °F 41% 30.14 in 10.0 mi Variable 5.8 mph - N/A   Clear
3:51 PM 60.1 °F - 46.0 °F 60% 30.14 in 9.0 mi WSW 4.6 mph - N/A   Clear
4:51 PM 55.0 °F - 48.0 °F 77% 30.16 in 10.0 mi West 3.5 mph - N/A   Clear
5:51 PM 55.0 °F - 48.0 °F 77% 30.16 in 10.0 mi West 3.5 mph - N/A   Clear
6:51 PM 52.0 °F - 46.0 °F 80% 30.17 in 10.0 mi Calm Calm - N/A   Clear
7:51 PM 50.0 °F - 46.9 °F 89% 30.19 in 10.0 mi Calm Calm - N/A   Scattered Clouds
8:22 PM 48.2 °F - 46.4 °F 93% 30.19 in 9.0 mi Calm Calm - N/A   Mostly Cloudy
8:51 PM 48.9 °F - 44.1 °F 83% 30.19 in 9.0 mi East 4.6 mph - N/A   Scattered Clouds
9:51 PM 46.0 °F 44.8 °F 39.0 °F 76% 30.18 in 10.0 mi East 3.5 mph - N/A   Clear
10:51 PM 45.0 °F 41.8 °F 37.0 °F 74% 30.18 in 10.0 mi NE 5.8 mph - N/A   Clear
11:51 PM 46.0 °F 42.5 °F 36.0 °F 68% 30.17 in 10.0 mi NE 6.9 mph - N/A   Clear